Location: Newark
(43.0275°N, 0.5708°E)
Time: 09:23:54
(UTC+00:00)

OTV 5 (USA 277) - Pass Details

Date: 28 October 2019
Orbit: 310 x 324 km, 54.5° (Epoch: 17 October)

Event Time Altitude Azimuth Distance (km) Brightness Sun altitude
Rises 18:34:55 0° 224° (SW) 2,048 ? -18.7°
Reaches altitude 10° 18:36:52 10° 221° (SW) 1,224 ? -19.0°
Enters shadow 18:38:40 36° 207° (SSW) 529 ? -19.4°
